User: anonymous   Login
Location: *
(49.6619°S, 177.4603°W)
Time: 06:34:50
(UTC+00:00)
Language:

Cosmos 1844 - Orbit

View from above orbital plane
View from above orbital plane
View from above satellite
View from above satellite

Ground track
Ground track

The orbit data is extracted from the following two-line orbital elements,

1 17973U 87041A   24106.27225005  .00000158  00000-0  10752-3 0  9995
2 17973  70.8985  56.5109 0031527 339.4134  20.5715 14.14301889905538
Epoch (UTC): 15 April 2024 06:32:02
Eccentricity: 0.0031527
inclination: 70.8985°
perigee height: 822 km
apogee height: 867 km
right ascension of ascending node: 56.5109°
argument of perigee: 339.4134°
revolutions per day: 14.14301889
mean anomaly at epoch: 20.5715°
orbit number at epoch: 90553

The dashed part of the orbit path shows where the satellite is in the earth's shadow,  

DLR